Hourly Weather Smolan

Today, 11 July, Saturday

Time Temperature Precipitation Wind Pressure Humidity
00:00 +12°C° 0 mm 1 mps 656 mmHg 82%
01:00 +12°C° 0 mm 1 mps 656 mmHg 81%
02:00 +11°C° 0 mm 1 mps 656 mmHg 81%
03:00 +11°C° 0 mm 1 mps 656 mmHg 79%
04:00 +11°C° 0 mm 1 mps 656 mmHg 77%
05:00 +10°C° 0 mm 1 mps 655 mmHg 75%
06:00 +13°C° 0 mm 1 mps 656 mmHg 68%
07:00 +15°C° 0 mm 1 mps 657 mmHg 61%
08:00 +19°C° 0 mm 1 mps 658 mmHg 53%
09:00 +20°C° 0 mm 1 mps 658 mmHg 50%
10:00 +21°C° 0 mm 2 mps 659 mmHg 46%
11:00 +23°C° 0 mm 2 mps 659 mmHg 43%
12:00 +23°C° 0 mm 2 mps 659 mmHg 44%
13:00 +24°C° 0 mm 2 mps 658 mmHg 44%
14:00 +24°C° 0 mm 2 mps 658 mmHg 45%
15:00 +24°C° 0 mm 2 mps 658 mmHg 48%
16:00 +23°C° 0 mm 2 mps 657 mmHg 51%
17:00 +23°C° 0 mm 2 mps 657 mmHg 53%
18:00 +21°C° 0 mm 1 mps 656 mmHg 63%
19:00 +19°C° 0 mm 1 mps 655 mmHg 72%
20:00 +15°C° 0 mm 1 mps 655 mmHg 82%
21:00 +15°C° 0 mm 1 mps 655 mmHg 83%
22:00 +14°C° 0 mm 1 mps 655 mmHg 84%
23:00 +14°C° 0 mm 1 mps 655 mmHg 85%

Tomorrow, 12 July, Sunday

Time Temperature Precipitation Wind Pressure Humidity
00:00 +13°C° 0 mm 1 mps 655 mmHg 85%
01:00 +13°C° 0 mm 1 mps 655 mmHg 84%
02:00 +13°C° 0 mm 1 mps 654 mmHg 84%
03:00 +13°C° 0 mm 1 mps 654 mmHg 84%
04:00 +13°C° 0 mm 1 mps 654 mmHg 84%
05:00 +13°C° 0 mm 1 mps 654 mmHg 84%
06:00 +15°C° 0 mm 1 mps 655 mmHg 77%
07:00 +18°C° 0 mm 1 mps 656 mmHg 70%
08:00 +20°C° 0 mm 1 mps 657 mmHg 63%
09:00 +20°C° 0 mm 2 mps 657 mmHg 60%
10:00 +23°C° 0 mm 2 mps 657 mmHg 56%
11:00 +24°C° 0 mm 3 mps 658 mmHg 53%
12:00 +24°C° 0 mm 3 mps 658 mmHg 53%
13:00 +24°C° 0 mm 3 mps 658 mmHg 53%
14:00 +24°C° 0 mm 3 mps 657 mmHg 53%
15:00 +24°C° 0.1 mm 3 mps 657 mmHg 55%
16:00 +24°C° 0.1 mm 3 mps 657 mmHg 57%
17:00 +22°C° 0.1 mm 3 mps 656 mmHg 59%
18:00 +20°C° 0 mm 2 mps 656 mmHg 68%
19:00 +18°C° 0 mm 2 mps 656 mmHg 76%
20:00 +16°C° 0 mm 1 mps 655 mmHg 85%
21:00 +15°C° 0 mm 1 mps 655 mmHg 87%
22:00 +15°C° 0 mm 1 mps 655 mmHg 89%
23:00 +14°C° 0 mm 1 mps 655 mmHg 91%

Day after tomorrow, 13 July, Monday

Time Temperature Precipitation Wind Pressure Humidity
00:00 +14°C° 0 mm 1 mps 655 mmHg 91%
01:00 +13°C° 0 mm 1 mps 655 mmHg 91%
02:00 +13°C° 0 mm 1 mps 655 mmHg 91%
03:00 +12°C° 0 mm 1 mps 655 mmHg 90%
04:00 +12°C° 0 mm 1 mps 655 mmHg 89%
05:00 +12°C° 0 mm 1 mps 654 mmHg 87%
06:00 +13°C° 0 mm 1 mps 655 mmHg 79%
07:00 +15°C° 0 mm 1 mps 656 mmHg 71%
08:00 +16°C° 0 mm 1 mps 656 mmHg 63%
09:00 +17°C° 0.1 mm 2 mps 657 mmHg 60%
10:00 +19°C° 0.1 mm 2 mps 657 mmHg 56%
11:00 +20°C° 0.1 mm 2 mps 658 mmHg 53%
12:00 +20°C° 0.1 mm 3 mps 657 mmHg 54%
13:00 +20°C° 0.1 mm 3 mps 657 mmHg 54%
14:00 +19°C° 0.1 mm 3 mps 657 mmHg 54%
15:00 +19°C° 0 mm 3 mps 657 mmHg 57%
16:00 +18°C° 0 mm 3 mps 657 mmHg 60%
17:00 +17°C° 0 mm 3 mps 656 mmHg 63%
18:00 +14°C° 0 mm 3 mps 656 mmHg 70%
19:00 +13°C° 0 mm 2 mps 656 mmHg 77%
20:00 +11°C° 0 mm 1 mps 655 mmHg 84%
21:00 +11°C° 0 mm 1 mps 655 mmHg 86%
22:00 +10°C° 0 mm 1 mps 655 mmHg 87%
23:00 +9°C° 0 mm 1 mps 655 mmHg 88%

14 July, Tuesday

Time Temperature Precipitation Wind Pressure Humidity
00:00 +9°C° 0 mm 1 mps 655 mmHg 88%
01:00 +9°C° 0 mm 1 mps 655 mmHg 87%
02:00 +9°C° 0 mm 1 mps 655 mmHg 86%
03:00 +9°C° 0 mm 1 mps 655 mmHg 86%
04:00 +8°C° 0 mm 1 mps 655 mmHg 85%
05:00 +8°C° 0 mm 1 mps 655 mmHg 84%
06:00 +10°C° 0 mm 1 mps 656 mmHg 76%
07:00 +12°C° 0 mm 1 mps 657 mmHg 69%
08:00 +15°C° 0 mm 1 mps 657 mmHg 61%
09:00 +16°C° 0 mm 2 mps 658 mmHg 57%
10:00 +17°C° 0 mm 2 mps 658 mmHg 52%
11:00 +18°C° 0 mm 2 mps 658 mmHg 48%
12:00 +19°C° 0 mm 2 mps 658 mmHg 49%
13:00 +19°C° 0 mm 2 mps 658 mmHg 49%
14:00 +19°C° 0 mm 2 mps 658 mmHg 50%
15:00 +19°C° 0 mm 2 mps 657 mmHg 53%
16:00 +18°C° 0 mm 2 mps 657 mmHg 56%
17:00 +19°C° 0 mm 1 mps 656 mmHg 59%
18:00 +16°C° 0 mm 1 mps 656 mmHg 63%
19:00 +15°C° 0 mm 1 mps 656 mmHg 67%
20:00 +13°C° 0 mm 1 mps 655 mmHg 72%
21:00 +13°C° 0 mm 1 mps 655 mmHg 73%
22:00 +12°C° 0 mm 1 mps 655 mmHg 73%
23:00 +11°C° 0 mm 1 mps 655 mmHg 74%

15 July, Wednesday

Time Temperature Precipitation Wind Pressure Humidity
00:00 +11°C° 0 mm 1 mps 655 mmHg 75%
01:00 +10°C° 0 mm 1 mps 655 mmHg 77%
02:00 +10°C° 0 mm 1 mps 655 mmHg 78%
03:00 +9°C° 0 mm 1 mps 655 mmHg 79%
04:00 +9°C° 0 mm 1 mps 655 mmHg 80%
05:00 +9°C° 0 mm 1 mps 655 mmHg 81%
06:00 +11°C° 0 mm 1 mps 656 mmHg 74%
07:00 +14°C° 0 mm 1 mps 656 mmHg 67%
08:00 +16°C° 0 mm 1 mps 657 mmHg 60%
09:00 +18°C° 0 mm 1 mps 658 mmHg 56%
10:00 +19°C° 0 mm 2 mps 658 mmHg 52%
11:00 +20°C° 0 mm 2 mps 658 mmHg 48%
12:00 +20°C° 0 mm 2 mps 658 mmHg 48%
13:00 +21°C° 0 mm 2 mps 658 mmHg 48%
14:00 +21°C° 0 mm 2 mps 658 mmHg 48%
15:00 +21°C° 0 mm 2 mps 657 mmHg 50%
16:00 +20°C° 0 mm 2 mps 657 mmHg 52%
17:00 +21°C° 0 mm 1 mps 656 mmHg 54%
18:00 +19°C° 0 mm 1 mps 656 mmHg 60%
19:00 +16°C° 0 mm 1 mps 655 mmHg 66%
20:00 +14°C° 0 mm 1 mps 655 mmHg 72%
21:00 +13°C° 0 mm 1 mps 655 mmHg 72%
22:00 +13°C° 0 mm 1 mps 655 mmHg 72%
23:00 +12°C° 0 mm 1 mps 655 mmHg 72%

16 July, Thursday

Time Temperature Precipitation Wind Pressure Humidity
00:00 +12°C° 0 mm 1 mps 655 mmHg 72%
01:00 +12°C° 0 mm 1 mps 655 mmHg 73%
02:00 +11°C° 0 mm 1 mps 655 mmHg 73%
03:00 +11°C° 0 mm 1 mps 655 mmHg 72%
04:00 +11°C° 0 mm 1 mps 654 mmHg 72%
05:00 +11°C° 0 mm 1 mps 654 mmHg 71%
06:00 +13°C° 0 mm 1 mps 655 mmHg 66%
07:00 +16°C° 0 mm 1 mps 656 mmHg 60%
08:00 +19°C° 0 mm 1 mps 657 mmHg 55%
09:00 +20°C° 0 mm 1 mps 657 mmHg 51%
10:00 +20°C° 0 mm 2 mps 657 mmHg 48%
11:00 +23°C° 0 mm 2 mps 658 mmHg 44%
12:00 +23°C° 0 mm 2 mps 657 mmHg 42%
13:00 +24°C° 0 mm 2 mps 657 mmHg 41%
14:00 +24°C° 0 mm 2 mps 657 mmHg 39%
15:00 +24°C° 0 mm 2 mps 657 mmHg 41%
16:00 +24°C° 0 mm 2 mps 657 mmHg 43%
17:00 +23°C° 0 mm 2 mps 656 mmHg 44%
18:00 +20°C° 0 mm 2 mps 656 mmHg 53%
19:00 +19°C° 0 mm 1 mps 655 mmHg 61%
20:00 +15°C° 0 mm 1 mps 654 mmHg 69%
21:00 +15°C° 0 mm 1 mps 654 mmHg 69%
22:00 +14°C° 0 mm 1 mps 654 mmHg 70%
23:00 +14°C° 0 mm 1 mps 654 mmHg 70%
Show more